User: anonymous   Login
Location: Caltech
(34.1382°N, 118.1253°W)
Time: 17:28:40
(UTC-07:00)
Language:

Cosmos 1484 Rocket - Orbit

View from above orbital plane
View from above orbital plane
View from above satellite
View from above satellite

Ground track
Ground track

The orbit data is extracted from the following two-line orbital elements,

1 14208U 83075B   18111.59914979 +.00000279 +00000-0 +20324-4 0  9996
2 14208 097.3440 114.5635 0040146 144.8441 215.5450 15.10665959893762
Epoch (UTC): 21 April 2018 14:22:46
Eccentricity: 0.0040146
inclination: 97.3440°
perigee height: 506 km
apogee height: 562 km
right ascension of ascending node: 114.5635°
argument of perigee: 144.8441°
revolutions per day: 15.10665959
mean anomaly at epoch: 215.5450°
orbit number at epoch: 89376

The dashed part of the orbit path shows where the satellite is in the earth's shadow,  

DLR